UMBRA-10

Last updated on Mon Sep 16 2024 00:02:04 GMT+0000 (Coordinated Universal Time)

1 60547U 24149CH 24258.91939575 .00022306 00000+0 21128-2 0 9999 2 60547 97.7464 333.9569 0005159 67.9541 292.2226 14.93602165 4344
UTC large
Height (km)
Speed (km/s)
/
Latitude / Longitude
Inclination (degrees)
Orbital Period (minutes)
Azimuth
Elevation
Range (km)
Doppler Factor

Next 0 passes for location: London (51.5072 / 0.1276)

Sorry there are no passes over London.